Location: Unspecified
(0.0000°N, 0.0000°E)
Time: 06:35:46
(UTC+00:00)

Courier 1B Rocket - Pass Details

Date: 21 November 2019
Orbit: 920 x 1202 km, 28.2° (Epoch: 10 December)

Event Time Altitude Azimuth Distance (km) Brightness Sun altitude
Rises 10:25:32 0° 246° (WSW) 3,548 7.8 62.0°
Reaches altitude 10° 10:28:08 10° 249° (WSW) 2,611 7.3 62.5°
Maximum altitude 10:34:20 66° 330° (NNW) 1,019 5.9 63.5°
Drops below altitude 10° 10:40:48 10° 52° (NE) 2,718 7.5 64.5°
Sets 10:43:34 0° 55° (NE) 3,705 8.0 64.9°
